TimeCDT,TemperatureF,Dew PointF,Humidity,Sea Level PressureIn,VisibilityMPH,Wind Direction,Wind SpeedMPH,Gust SpeedMPH,PrecipitationIn,Events,Conditions,WindDirDegrees,DateUTC
12:00 AM,41.0,35.6,81,29.78,9.0,SSW,15.0,20.7,N/A,,Clear,200,2013-06-25 05:00:00
1:00 AM,40,35,74,29.76,,South,19.6,,,,,190,2013-06-25 06:00:00
1:00 AM,39.2,35.6,87,29.78,9.0,SSW,16.1,-,N/A,,Mostly Cloudy,210,2013-06-25 06:00:00
2:00 AM,39.2,33.8,81,29.75,9.0,South,16.1,-,N/A,,Mostly Cloudy,190,2013-06-25 07:00:00
3:00 AM,39.2,33.8,81,29.73,9.0,SSW,18.4,24.2,N/A,,Overcast,210,2013-06-25 08:00:00
4:00 AM,37.4,33.8,87,29.72,9.0,SW,21.9,-,N/A,,Overcast,220,2013-06-25 09:00:00
5:00 AM,37.4,33.8,87,29.70,9.0,SW,19.6,27.6,N/A,,Scattered Clouds,220,2013-06-25 10:00:00
6:00 AM,39.2,33.8,81,29.68,9.0,SSW,19.6,25.3,N/A,,Mostly Cloudy,210,2013-06-25 11:00:00
7:00 AM,38,34,79,29.66,,SSW,19.6,,,,,200,2013-06-25 12:00:00
7:00 AM,37.4,33.8,87,29.67,9.0,SW,20.7,26.5,N/A,,Scattered Clouds,220,2013-06-25 12:00:00
8:00 AM,39.2,35.6,87,29.65,9.0,SW,19.6,26.5,N/A,,Partly Cloudy,220,2013-06-25 13:00:00
9:00 AM,39.2,35.6,87,29.64,9.0,SW,17.3,-,N/A,,Mostly Cloudy,220,2013-06-25 14:00:00
10:00 AM,41.0,35.6,81,29.62,9.0,SW,18.4,-,N/A,,Partly Cloudy,220,2013-06-25 15:00:00
11:00 AM,41.0,35.6,81,29.62,9.0,SW,15.0,21.9,N/A,,Partly Cloudy,230,2013-06-25 16:00:00
12:00 PM,46.4,39.2,76,29.61,9.0,WSW,13.8,-,N/A,,Clear,240,2013-06-25 17:00:00
12:59 PM,48.2,41.0,76,29.61,4.0,WSW,12.7,-,N/A,,Haze,250,2013-06-25 17:59:00
1:00 PM,48,41,68,29.60,,SW,5.8,,,,,220,2013-06-25 18:00:00
1:00 PM,48.2,41.0,76,29.61,4.0,WSW,12.7,-,N/A,,Haze,250,2013-06-25 18:00:00
1:32 PM,53.6,44.6,72,29.61,6.0,West,15.0,-,N/A,,Haze,260,2013-06-25 18:32:00
2:00 PM,59.0,48.2,67,29.61,15.0,WNW,13.8,-,N/A,,Mostly Cloudy,300,2013-06-25 19:00:00
3:00 PM,57.2,46.4,67,29.63,15.0,NW,18.4,-,N/A,,Mostly Cloudy,320,2013-06-25 20:00:00
4:00 PM,48.2,42.8,82,29.64,15.0,NNW,26.5,33.4,N/A,,Overcast,330,2013-06-25 21:00:00
4:17 PM,46.4,41.0,81,29.65,15.0,NNW,31.1,-,N/A,,Overcast,330,2013-06-25 21:17:00
5:00 PM,44.6,39.2,81,29.68,15.0,NNW,31.1,-,N/A,,Mostly Cloudy,330,2013-06-25 22:00:00
6:00 PM,42.8,37.4,81,29.70,15.0,NNW,35.7,42.6,N/A,,Overcast,340,2013-06-25 23:00:00
7:00 PM,40,34,73,29.72,,NNW,31.1,,,,,340,2013-06-26 00:00:00
7:00 PM,39.2,35.6,87,29.72,15.0,NNW,35.7,46.0,N/A,,Widespread Dust,340,2013-06-26 00:00:00
7:19 PM,39.2,33.8,81,29.73,9.0,NNW,36.8,44.9,N/A,,Overcast,340,2013-06-26 00:19:00
8:00 PM,37.4,33.8,87,29.75,9.0,North,39.1,46.0,N/A,,Overcast,350,2013-06-26 01:00:00
8:11 PM,37.4,33.8,87,29.75,9.0,NNW,40.3,-,N/A,,Overcast,340,2013-06-26 01:11:00
9:00 PM,37.4,32.0,81,29.77,9.0,NNW,40.3,47.2,N/A,,Scattered Clouds,340,2013-06-26 02:00:00
10:00 PM,37.4,32.0,81,29.79,9.0,North,41.4,47.2,N/A,,Clear,350,2013-06-26 03:00:00
11:00 PM,35.6,30.2,81,29.83,9.0,North,43.7,-,N/A,,Clear,350,2013-06-26 04:00:00